Weather History for KSAD - April, 2013

Change the Weather History Date:

Wednesday, April 3, 2013

  Actual Average Record
Temperature  
Mean Temperature 62 °F -  
Max Temperature 79 °F 72 °F 90 °F (1959)
Min Temperature 44 °F 39 °F 29 °F (1956)
Degree Days  
Heating Degree Days 4    
Growing Degree Days 12 (Base 50)    
Moisture  
Dew Point 21 °F    
Average Humidity 20    
Maximum Humidity 32    
Minimum Humidity 11    
Precipitation  
Precipitation 0.00 in - - ()
Sea Level Pressure  
Sea Level Pressure 29.91 in    
Wind  
Wind Speed 8 mph (WNW)    
Max Wind Speed 23 mph    
Max Gust Speed 28 mph    
Visibility 10 miles    
Events      
Averages and records for this station are not official NWS values.
T = Trace of Precipitation, MM = Missing Value Source: NWS Daily Summary

Daily Weather History Graph

Daily Weather History Graph

Search for Another Location

Airport or City:

Trip Planner

Search our weather history database for the weather conditions in past years. The results will help you decide how hot, cold, wet, or windy it might be!

Date:

Astronomy

Apr. 03, 2013 Rise Set
Actual Time 6:03 AM MST 6:40 PM MST
Civil Twilight 5:38 AM MST 7:05 PM MST
Nautical Twilight 5:09 AM MST 7:34 PM MST
Astronomical Twilight 4:39 AM MST 8:04 PM MST
Moon 1:26 AM MST (4/3) 12:15 PM MST (4/3)
Length of Visible Light 13h 26m
Length of Day
12h 36m
Last Quarter, 43% of the Moon is Illuminated
Apr 3
Last Quarter
Apr 10
New
Apr 18
First Quarter
Apr 25
Full
May 2
Last Quarter

Hourly Weather History & Observations

Time (MST) Temp. Dew Point Humidity Pressure Visibility Wind Dir Wind Speed Gust Speed Precip Events Conditions
12:51 AM 57.0 °F 19.9 °F 24% 29.86 in 10.0 mi North 8.1 mph - N/A   Clear
1:51 AM 54.0 °F 19.0 °F 25% 29.87 in 10.0 mi North 4.6 mph - N/A   Clear
2:51 AM 54.0 °F 19.9 °F 26% 29.88 in 10.0 mi SSW 4.6 mph - N/A   Clear
3:51 AM 51.1 °F 19.0 °F 28% 29.88 in 10.0 mi East 6.9 mph - N/A   Clear
4:51 AM 48.9 °F 19.0 °F 31% 29.91 in 10.0 mi SE 3.5 mph - N/A   Clear
5:51 AM 44.1 °F 16.0 °F 32% 29.94 in 10.0 mi Calm Calm - N/A   Clear
6:51 AM 50.0 °F 17.1 °F 27% 29.96 in 10.0 mi Calm Calm - N/A   Clear
7:51 AM 57.0 °F 21.9 °F 26% 29.98 in 10.0 mi Calm Calm - N/A   Clear
8:51 AM 62.1 °F 23.0 °F 22% 29.98 in 10.0 mi Calm Calm - N/A   Clear
9:51 AM 66.9 °F 27.0 °F 22% 29.97 in 10.0 mi WNW 5.8 mph - N/A   Clear
10:51 AM 71.1 °F 28.0 °F 20% 29.95 in 10.0 mi WSW 8.1 mph - N/A   Clear
11:51 AM 73.9 °F 24.1 °F 16% 29.92 in 10.0 mi West 11.5 mph 18.4 mph N/A   Clear
12:51 PM 77.0 °F 24.1 °F 14% 29.91 in 10.0 mi West 15.0 mph 24.2 mph N/A   Clear
1:51 PM 79.0 °F 19.0 °F 11% 29.88 in 10.0 mi WNW 21.9 mph 27.6 mph N/A   Clear
2:51 PM 79.0 °F 21.0 °F 12% 29.86 in 10.0 mi WNW 13.8 mph 25.3 mph N/A   Clear
3:51 PM 79.0 °F 21.0 °F 12% 29.86 in 10.0 mi WNW 13.8 mph 24.2 mph N/A   Clear
4:51 PM 79.0 °F 21.0 °F 12% 29.86 in 10.0 mi West 23.0 mph 27.6 mph N/A   Clear
5:51 PM 77.0 °F 21.0 °F 12% 29.87 in 10.0 mi WNW 21.9 mph 25.3 mph N/A   Clear
6:51 PM 73.9 °F 21.0 °F 14% 29.88 in 10.0 mi WNW 9.2 mph - N/A   Clear
7:51 PM 69.1 °F 21.0 °F 16% 29.91 in 10.0 mi Calm Calm - N/A   Clear
8:51 PM 66.0 °F 19.9 °F 17% 29.93 in 10.0 mi NW 12.7 mph - N/A   Clear
9:51 PM 64.9 °F 21.9 °F 19% 29.94 in 10.0 mi NW 9.2 mph - N/A   Clear
10:51 PM 62.1 °F 21.9 °F 21% 29.95 in 10.0 mi NW 10.4 mph - N/A   Clear
11:51 PM 59.0 °F 19.0 °F 21% 29.96 in 10.0 mi NW 6.9 mph - N/A   Clear